USGS - science for a changing world

Kansas Water Science Center

Jump to content

Jump back to navigation

Current Streamflow Conditions

Welcome to the U.S. Geological Survey (USGS) Web page for the water resources of Kansas. Here you'll find information on Kansas's rivers and streams. You'll also find information about groundwater, water quality, and many other topics. The USGS operates the most extensive satellite network of stream-gaging stations in the state, many of which form the backbone of flood-warning systems.

The Kansas Water Science Center provides current ("real-time") stream stage in Kansas and streamflow, water-quality, and groundwater levels for over 200 sites.
The USGS provides National ("real-time") stream stage and streamflow, water-quality, and groundwater levels for over 7000 sites.

Of Current Interest

USGS Scientific Investigations Report: Streamflow Characteristics and Trends Along Soldier Creek, Northeast Kansas

Press Release: Human Activity Alters Streamflow throughout Kansas

Water-level and recoverable water in storage changes, High Plains aquifer, predevelopment to 2015 and 2013-2015.

USGS WaterAlert Service Turn Around Don't Drown

Now you can receive instant, customized updates about water conditions by subscribing to WaterAlert, a new service from the U.S. Geological Survey. WaterAlert allows you to receive daily or hourly updates about current conditions in rivers, lakes and groundwater when they match conditions of concern to you.

Kansas Lake Report

Kansas Lake Report

Highlighted Publications

The Kansas Water Science Center produces publications about water resources.   Search our publications

Kansas Earthquakes - Last 30 days

  1. 2.3 13km WSW of Conway Springs, Kansas 2017-09-20 10:27:30 CDT
  2. 2.8 5km E of Harper, Kansas 2017-09-15 17:10:31 CDT
  3. 2.08 5km E of Harper, Kansas 2017-09-15 10:14:46 CDT
  4. 3 5km E of Harper, Kansas 2017-09-15 08:04:52 CDT
  5. 1.73 13km WSW of Conway Springs, Kansas 2017-09-15 05:46:17 CDT
  6. 1.62 13km WSW of Conway Springs, Kansas 2017-09-15 00:00:01 CDT
  7. 2.7 19km WSW of Wellington, Kansas 2017-09-14 20:13:07 CDT
  8. 1.58 13km ENE of Anthony, Kansas 2017-09-14 17:54:34 CDT
  9. 2.8 17km NW of Harper, Kansas 2017-09-14 16:13:09 CDT
  10. 2.12 13km ENE of Anthony, Kansas 2017-09-14 09:19:07 CDT
  11. 1.81 8km SE of Conway Springs, Kansas 2017-09-14 03:15:28 CDT
  12. 3.2 7km ENE of Harper, Kansas 2017-09-13 23:14:41 CDT
  13. 1.72 5km E of Harper, Kansas 2017-09-13 17:46:56 CDT
  14. 2.06 11km WNW of Wellington, Kansas 2017-09-11 22:49:45 CDT
  15. 1.57 14km ESE of Harper, Kansas 2017-09-10 17:40:07 CDT
  16. 2.3 14km WSW of Conway Springs, Kansas 2017-09-10 10:19:15 CDT
  17. 1.52 14km ESE of Harper, Kansas 2017-09-10 05:37:04 CDT
  18. 1.63 7km SE of Conway Springs, Kansas 2017-09-09 23:01:25 CDT
  19. 1.66 16km ENE of Anthony, Kansas 2017-09-09 07:59:13 CDT
  20. 2.39 14km WSW of Conway Springs, Kansas 2017-09-08 04:59:40 CDT
  21. 1.85 13km ENE of Anthony, Kansas 2017-09-07 21:45:18 CDT
  22. 2.5 17km WNW of Harper, Kansas 2017-09-07 16:53:50 CDT
  23. 1.68 17km SW of Conway Springs, Kansas 2017-09-07 01:24:30 CDT
  24. 1.84 15km N of Caldwell, Kansas 2017-09-06 13:50:36 CDT
  25. 1.67 5km E of Harper, Kansas 2017-09-05 14:41:00 CDT
  26. 1.82 21km SSE of Anthony, Kansas 2017-09-05 13:33:02 CDT
  27. 2.8 4km S of Cheney, Kansas 2017-09-04 20:32:53 CDT
  28. 1.51 16km N of Caldwell, Kansas 2017-09-04 10:43:14 CDT
  29. 2.2 6km SE of Cheney, Kansas 2017-09-04 01:10:11 CDT
  30. 2.32 16km N of Caldwell, Kansas 2017-09-03 15:09:06 CDT
  31. 2.2 4km SSE of Cheney, Kansas 2017-09-03 14:17:58 CDT
  32. 1.93 16km N of Caldwell, Kansas 2017-09-03 11:28:31 CDT
  33. 2.4 16km N of Caldwell, Kansas 2017-09-03 11:07:42 CDT
  34. 2.3 3km SSE of Cheney, Kansas 2017-09-02 14:45:58 CDT
  35. 2.6 26km NW of Concordia, Kansas 2017-08-31 12:21:44 CDT
  36. 3.4 7km S of Cheney, Kansas 2017-08-31 02:21:16 CDT
  37. 1.58 14km WSW of Conway Springs, Kansas 2017-08-30 05:46:22 CDT
  38. 1.72 22km SSE of Anthony, Kansas 2017-08-29 23:40:20 CDT
  39. 3 19km NW of Medford, Oklahoma 2017-08-29 19:43:56 CDT
  40. 2.5 19km NW of Medford, Oklahoma 2017-08-29 19:43:22 CDT
  41. 2.6 26km ENE of Buffalo, Oklahoma 2017-08-29 18:20:08 CDT
  42. 2.04 15km ENE of Anthony, Kansas 2017-08-29 14:02:08 CDT
  43. 2.32 17km SE of Anthony, Kansas 2017-08-29 07:35:22 CDT
  44. 2.9 17km W of Wellington, Kansas 2017-08-27 10:01:16 CDT
  45. 1.6 5km ENE of Anthony, Kansas 2017-08-26 12:10:12 CDT
  46. 2.4 26km NE of Buffalo, Oklahoma 2017-08-26 05:28:00 CDT
  47. 2.1 15km SW of Wellington, Kansas 2017-08-26 00:45:43 CDT
  48. 1.91 8km N of Caldwell, Kansas 2017-08-24 20:50:20 CDT
  49. 2.3 27km ENE of Buffalo, Oklahoma 2017-08-24 01:24:51 CDT
  50. 1.51 15km WSW of Wellington, Kansas 2017-08-23 20:50:15 CDT
  51. 1.6 15km WSW of Wellington, Kansas 2017-08-23 17:07:30 CDT
  52. 1.97 12km W of Wellington, Kansas 2017-08-23 16:57:55 CDT
  53. 2.12 15km SW of Wellington, Kansas 2017-08-23 16:57:33 CDT
  54. 1.93 11km N of Caldwell, Kansas 2017-08-23 03:22:12 CDT
  55. 1.64 7km ESE of Harper, Kansas 2017-08-22 19:58:41 CDT
  56. 1.98 12km W of Wellington, Kansas 2017-08-22 02:16:02 CDT
06824000: Flow=4.05cfs,Stage=0.34ft,2017-09-20 23:45,Low,Rock Creek at Parks, Nebr. 06916600: Flow=2400cfs,Stage=8.48ft,Floodstage=27ft,2017-09-21 00:45,>90,MARAIS DES CYGNES R NR KS-MO ST LINE, KS 06915000: Flow=160cfs,Stage=3.21ft,2017-09-21 00:30,>90,BIG BULL C NR HILLSDALE, KS 07156900: Flow=13.8cfs,Stage=1.94ft,Floodstage=5ft,2017-09-21 00:00,<10,Cimarron River near Forgan, OK 07143665: Flow=1.21cfs,Stage=-0.21ft,Floodstage=22ft,2017-09-21 00:15,<10,L ARKANSAS R AT ALTA MILLS, KS 06884400: Flow=69.6cfs,Stage=3.58ft,Floodstage=21ft,2017-09-21 00:30,<10,L BLUE R NR BARNES, KS 06884025: Flow=43.5cfs,Stage=1.71ft,Floodstage=19ft,2017-09-21 01:00,<10,Little Blue River at Hollenberg, KS 06823500: Flow=0.00cfs,Stage=0.48ft,Floodstage=11ft,2017-09-20 23:45,<10,Buffalo Creek near Haigler, Nebr. 07184000: Flow=42.9cfs,Stage=1.64ft,Floodstage=12ft,2017-09-21 00:45,76-90,LIGHTNING C NR MCCUNE, KS 06917500: Flow=237cfs,Stage=10.00ft,Floodstage=38ft,2017-09-21 00:30,76-90,MARMATON R NR FORT SCOTT, KS 06917000: Flow=129cfs,Stage=4.27ft,Floodstage=22ft,2017-09-21 00:15,76-90,L OSAGE R AT FULTON, KS 06915800: Flow=1630cfs,Stage=7.43ft,Floodstage=25ft,2017-09-21 00:15,76-90,MARAIS DES CYGNES R AT LA CYGNE, KS 06913500: Flow=115cfs,Stage=4.13ft,Floodstage=31ft,2017-09-21 00:30,76-90,MARAIS DES CYGNES R NR OTTAWA, KS 06893080: Flow=13.8cfs,Stage=4.20ft,Floodstage=16ft,2017-09-21 00:45,76-90,BLUE R NR STANLEY, KS 06891500: Flow=59.2cfs,Stage=4.91ft,Floodstage=23ft,2017-09-21 00:45,76-90,WAKARUSA R NR LAWRENCE, KS 06852500: Flow=81.0cfs,Stage=1.28ft,2017-09-21 00:15,76-90,Courtland Canal at Nebraska-Kansas Stateline 07170500: Flow=36.3cfs,Stage=1.52ft,Floodstage=30ft,2017-09-21 01:00,10-24,VERDIGRIS R AT INDEPENDENCE, KS 07166500: Flow=11.3cfs,Stage=3.21ft,Floodstage=19ft,2017-09-21 00:45,10-24,VERDIGRIS R NR ALTOONA, KS 07144780: Flow=19.4cfs,Stage=5.88ft,2017-09-21 00:30,10-24,NF NINNESCAH R AB CHENEY RE, KS 07144200: Flow=22.0cfs,Stage=0.77ft,2017-09-21 00:00,10-24,L ARKANSAS R AT VALLEY CENTER, KS 07143300: Flow=1.89cfs,Stage=3.88ft,Floodstage=18ft,2017-09-21 00:30,10-24,COW C NR LYONS, KS 07142300: Flow=0.00cfs,Stage=2.35ft,Floodstage=9ft,2017-09-21 00:00,10-24,RATTLESNAKE C NR MACKSVILLE, KS 06892350: Flow=1460cfs,Stage=4.64ft,Floodstage=26ft,2017-09-21 00:45,10-24,KANSAS R AT DESOTO, KS 06891000: Flow=1160cfs,Stage=1.90ft,Floodstage=17ft,2017-09-21 00:30,10-24,KANSAS R AT LECOMPTON, KS 06889000: Flow=1090cfs,Stage=4.95ft,Floodstage=26ft,2017-09-21 00:30,10-24,KANSAS R AT TOPEKA, KS 06888350: Flow=1120cfs,Stage=5.88ft,Floodstage=20ft,2017-09-21 00:30,10-24,KANSAS R NR BELVUE, KS 06887500: Flow=960cfs,Stage=3.71ft,Floodstage=19ft,2017-09-21 00:30,10-24,KANSAS R AT WAMEGO, KS 06879100: Flow=404cfs,Stage=5.59ft,Floodstage=21ft,2017-09-21 00:30,10-24,KANSAS R AT FORT RILEY, KS 06876000: Flow=15.2cfs,Stage=2.62ft,Floodstage=20ft,2017-09-21 00:45,10-24,SOLOMON R AT BELOIT, KS 06875900: Flow=15.7cfs,Stage=7.40ft,Floodstage=21ft,2017-09-21 00:30,10-24,SOLOMON R NR GLEN ELDER, KS 06868200: Flow=13.6cfs,Stage=2.75ft,2017-09-21 00:45,10-24,SALINE R AT WILSON DAM, KS 06866500: Flow=61.9cfs,Stage=4.08ft,Floodstage=20ft,2017-09-21 00:45,10-24,SMOKY HILL R NR MENTOR, KS 06864500: Flow=16.7cfs,Stage=1.42ft,Floodstage=20ft,2017-09-21 00:30,10-24,SMOKY HILL R AT ELLSWORTH, KS 06864000: Flow=3.35cfs,Stage=3.19ft,Floodstage=18ft,2017-09-21 00:30,10-24,SMOKY HILL R NR RUSSELL, KS 06861000: Flow=0.04cfs,Stage=0.24ft,Floodstage=7ft,2017-09-21 00:30,10-24,SMOKY HILL R NR ARNOLD, KS 06857100: Flow=34.1cfs,Stage=4.39ft,2017-09-21 00:30,10-24,REPUBLICAN R AT JUNCTION CITY, KS 06814000: Flow=1.55cfs,Stage=0.85ft,Floodstage=21ft,2017-09-21 00:45,10-24,TURKEY C NR SENECA, KS 07188000: Flow=766cfs,Stage=6.91ft,Floodstage=20ft,2017-09-21 00:00,25-75,Spring River near Quapaw, OK 07186000: Flow=274cfs,Stage=1.85ft,Floodstage=19ft,2017-09-21 00:30,25-75,Spring River near Waco, MO 07185000: Flow=1520cfs,Stage=3.69ft,Floodstage=15ft,2017-09-21 00:30,25-75,Neosho River near Commerce, OK 07183500: Flow=588cfs,Stage=7.93ft,Floodstage=21ft,2017-09-21 00:00,25-75,NEOSHO R NR PARSONS, KS 07183000: Flow=134cfs,Stage=6.92ft,Floodstage=15ft,2017-09-21 00:30,25-75,NEOSHO R NR IOLA, KS 07182510: Flow=56.7cfs,Stage=5.79ft,Floodstage=27ft,2017-09-21 00:15,25-75,NEOSHO R AT BURLINGTON, KS 07182250: Flow=69.2cfs,Stage=2.17ft,Floodstage=32ft,2017-09-21 01:00,25-75,COTTONWOOD R NR PLYMOUTH, KS 07180500: Flow=3.54cfs,Stage=4.14ft,2017-09-21 00:15,25-75,CEDAR C NR CEDAR POINT, KS 07180400: Flow=54.4cfs,Stage=3.25ft,Floodstage=22ft,2017-09-21 00:15,25-75,COTTONWOOD R NR FLORENCE, KS 07179795: Flow=9.07cfs,Stage=4.83ft,2017-09-21 00:30,25-75,N COTTONWOOD R BL MARION LK, KS 07179730: Flow=31.6cfs,Stage=2.85ft,Floodstage=26ft,2017-09-21 00:15,25-75,NEOSHO R NR AMERICUS, KS 07179500: Flow=7.39cfs,Stage=8.00ft,2017-09-21 01:00,25-75,NEOSHO R AT COUNCIL GROVE, KS 07172000: Flow=2.30cfs,Stage=1.49ft,2017-09-21 01:00,25-75,CANEY R NR ELGIN, KS 07169800: Flow=0.71cfs,Stage=2.17ft,2017-09-21 01:00,25-75,ELK R AT ELK FALLS, KS 07169500: Flow=15.5cfs,Stage=2.78ft,Floodstage=17ft,2017-09-21 01:00,25-75,FALL R AT FREDONIA, KS 07167500: Flow=0.44cfs,Stage=1.13ft,2017-09-21 00:15,25-75,OTTER C AT CLIMAX, KS 07157500: Flow=2.16cfs,Stage=2.00ft,Floodstage=6.5ft,2017-09-21 00:30,25-75,CROOKED C NR ENGLEWOOD, KS 07151500: Flow=32.4cfs,Stage=2.01ft,Floodstage=10ft,2017-09-21 01:00,25-75,CHIKASKIA R NR CORBIN, KS 07149000: Flow=12.7cfs,Stage=0.03ft,Floodstage=10ft,2017-09-21 00:30,25-75,MEDICINE LODGE R NR KIOWA, KS 07147800: Flow=113cfs,Stage=1.20ft,Floodstage=18ft,2017-09-21 01:00,25-75,WALNUT R AT WINFIELD, KS 07147070: Flow=24.5cfs,Stage=1.69ft,2017-09-21 00:30,25-75,WHITEWATER R AT TOWANDA, KS 07146500: Flow=655cfs,Stage=3.40ft,Floodstage=11ft,2017-09-21 01:00,25-75,ARKANSAS R AT ARKANSAS CITY, KS 07145700: Flow=3.72cfs,Stage=3.78ft,Floodstage=19ft,2017-09-21 01:00,25-75,SLATE C AT WELLINGTON, KS 07145500: Flow=66.3cfs,Stage=2.47ft,Floodstage=17ft,2017-09-21 01:00,25-75,NINNESCAH R NR PECK, KS 07145200: Flow=77.9cfs,Stage=3.63ft,Floodstage=8ft,2017-09-21 01:00,25-75,SF NINNESCAH R NR MURDOCK, KS 07144910: Flow=6.88cfs,Stage=2.67ft,Floodstage=9ft,2017-09-21 01:00,25-75,SF NINNESCAH R NR PRATT, KS 07144550: Flow=256cfs,Stage=1.32ft,Floodstage=12ft,2017-09-21 01:00,25-75,ARKANSAS R AT DERBY, KS 07144300: Flow=172cfs,Stage=3.12ft,2017-09-21 00:45,25-75,ARKANSAS R AT WICHITA, KS 07143330: Flow=104cfs,Stage=2.09ft,Floodstage=10ft,2017-09-21 00:30,25-75,ARKANSAS R NR HUTCHINSON, KS 07142575: Flow=2.82cfs,Stage=11.39ft,Floodstage=17ft,2017-09-21 00:30,25-75,RATTLESNAKE C NR ZENITH, KS 07141300: Flow=10.7cfs,Stage=1.18ft,Floodstage=12ft,2017-09-21 00:30,25-75,ARKANSAS R AT GREAT BEND, KS 07138000: Flow=137cfs,Stage=4.52ft,Floodstage=10ft,2017-09-21 00:15,25-75,ARKANSAS R AT SYRACUSE, KS 07137500: Flow=137cfs,Stage=3.12ft,Floodstage=8ft,2017-09-21 00:15,25-75,ARKANSAS R NR COOLIDGE, KS 07137000: Flow=18.9cfs,Stage=10.86ft,2017-09-21 00:45,25-75,FRONTIER DITCH NR COOLIDGE, KS 06913000: Flow=60.8cfs,Stage=1.28ft,Floodstage=20ft,2017-09-21 00:30,25-75,MARAIS DES CYGNES R NR POMONA, KS 06912500: Flow=22.9cfs,Stage=2.77ft,2017-09-21 00:45,25-75,HUNDRED AND TEN MILE C NR QUENEMO, KS 06911900: Flow=1.97cfs,Stage=7.93ft,Floodstage=19ft,2017-09-21 00:00,25-75,DRAGOON C NR BURLINGAME, KS 06911000: Flow=26.9cfs,Stage=2.36ft,2017-09-21 00:45,25-75,MARAIS DES CYGNES R AT MELVERN, KS 06910800: Flow=3.22cfs,Stage=2.18ft,Floodstage=19ft,2017-09-21 00:45,25-75,MARAIS DES CYGNES R NR READING, KS 06893500: Flow=73.4cfs,Stage=4.44ft,Floodstage=34ft,2017-09-21 00:45,25-75,Blue River at Kansas City, MO 06893300: Flow=21.0cfs,Stage=5.81ft,Floodstage=14ft,2017-09-21 00:15,25-75,INDIAN C AT OVERLAND PARK, KS 06893000: Flow=46900cfs,Stage=10.30ft,Floodstage=32ft,2017-09-21 00:30,25-75,Missouri River at Kansas City, MO 06892000: Flow=42.7cfs,Stage=2.64ft,Floodstage=23ft,2017-09-21 00:30,25-75,STRANGER C NR TONGANOXIE, KS 06890900: Flow=63.1cfs,Stage=26.64ft,2017-09-21 00:30,25-75,DELAWARE R AT PERRY, KS 06890100: Flow=7.74cfs,Stage=2.26ft,Floodstage=27ft,2017-09-21 00:45,25-75,DELAWARE R NR MUSCOTAH, KS 06889500: Flow=11.4cfs,Stage=-0.05ft,Floodstage=29ft,2017-09-21 01:00,25-75,SOLDIER C NR TOPEKA, KS 06888500: Flow=11.8cfs,Stage=2.20ft,Floodstage=21ft,2017-09-21 00:45,25-75,MILL C NR PAXICO, KS 06888000: Flow=8.75cfs,Stage=3.76ft,2017-09-21 00:45,25-75,VERMILLION C NR WAMEGO, KS 06887000: Flow=518cfs,Stage=1.47ft,Floodstage=19ft,2017-09-21 00:00,25-75,BIG BLUE R NR MANHATTAN, KS 06885500: Flow=7.27cfs,Stage=3.06ft,Floodstage=19ft,2017-09-21 00:30,25-75,BLACK VERMILLION R NR FRANKFORT, KS 06884200: Flow=5.38cfs,Stage=1.54ft,Floodstage=18ft,2017-09-21 00:45,25-75,MILL C AT WASHINGTON, KS 06882510: Flow=211cfs,Stage=11.55ft,Floodstage=35ft,2017-09-21 00:30,25-75,BIG BLUE R AT MARYSVILLE, KS 06882000: Flow=242cfs,Stage=3.81ft,Floodstage=20ft,2017-09-21 00:00,25-75,Big Blue River at Barneston, Nebr. 06878000: Flow=22.4cfs,Stage=4.54ft,Floodstage=19ft,2017-09-21 00:45,25-75,CHAPMAN C NR CHAPMAN, KS 06877600: Flow=287cfs,Stage=6.84ft,Floodstage=26ft,2017-09-21 00:45,25-75,SMOKY HILL R AT ENTERPRISE, KS 06876900: Flow=87.2cfs,Stage=3.34ft,Floodstage=24ft,2017-09-21 00:30,25-75,SOLOMON R AT NILES, KS 06876700: Flow=6.46cfs,Stage=4.25ft,Floodstage=18ft,2017-09-21 00:45,25-75,SALT C NR ADA, KS 06874000: Flow=21.6cfs,Stage=3.67ft,Floodstage=14ft,2017-09-21 00:30,25-75,SF SOLOMON R AT OSBORNE, KS 06873460: Flow=4.01cfs,Stage=4.19ft,Floodstage=12ft,2017-09-21 00:30,25-75,SF SOLOMON R AT WOODSTON, KS 06873000: Flow=2.67cfs,Stage=1.41ft,Floodstage=8.5ft,2017-09-21 00:15,25-75,SF SOLOMON R AB WEBSTER RE, KS 06872500: Flow=22.4cfs,Stage=3.61ft,Floodstage=15ft,2017-09-21 00:30,25-75,NF SOLOMON R AT PORTIS, KS 06871500: Flow=3.21cfs,Stage=3.41ft,Floodstage=9ft,2017-09-21 00:45,25-75,BOW C NR STOCKTON, KS 06871000: Flow=5.53cfs,Stage=2.49ft,Floodstage=11ft,2017-09-21 00:30,25-75,NF SOLOMON R AT GLADE, KS 06869500: Flow=39.5cfs,Stage=5.19ft,Floodstage=25ft,2017-09-21 00:30,25-75,SALINE R AT TESCOTT, KS 06867000: Flow=25.0cfs,Stage=5.42ft,Floodstage=18ft,2017-09-21 00:30,25-75,SALINE R NR RUSSELL, KS 06866900: Flow=1.70cfs,Stage=2.21ft,Floodstage=13ft,2017-09-21 00:00,25-75,SALINE R NR WAKEENEY, KS 06866000: Flow=63.8cfs,Stage=6.46ft,Floodstage=21ft,2017-09-21 00:30,25-75,SMOKY HILL R AT LINDSBORG, KS 06865500: Flow=52.6cfs,Stage=3.16ft,2017-09-21 00:30,25-75,SMOKY HILL R NR LANGLEY, KS 06863500: Flow=1.66cfs,Stage=4.90ft,Floodstage=26ft,2017-09-21 00:30,25-75,BIG C NR HAYS, KS 06862700: Flow=0.08cfs,Stage=3.24ft,2017-09-21 00:30,25-75,SMOKY HILL R NR SCHOENCHEN, KS 06856600: Flow=194cfs,Stage=6.81ft,Floodstage=15ft,2017-09-21 00:30,25-75,REPUBLICAN R AT CLAY CENTER, KS 06856000: Flow=111cfs,Stage=4.68ft,Floodstage=15ft,2017-09-21 00:30,25-75,REPUBLICAN R AT CONCORDIA, KS 06854500: Flow=124cfs,Stage=0.79ft,Floodstage=10ft,2017-09-21 00:15,25-75,REPUBLICAN R AT SCANDIA, KS 06853800: Flow=4.08cfs,Stage=1.56ft,Floodstage=16ft,2017-09-21 00:45,25-75,WHITE ROCK C NR BURR OAK, KS 06853500: Flow=91.6cfs,Stage=1.81ft,Floodstage=11ft,2017-09-21 00:30,25-75,REPUBLICAN R NR HARDY, NE 06847900: Flow=0.30cfs,Stage=3.28ft,Floodstage=11ft,2017-09-21 00:45,25-75,PRAIRIE DOG C AB KEITH SEBELIUS LAKE, KS 06821500: Flow=1.78cfs,Stage=4.96ft,Floodstage=12ft,2017-09-20 23:30,25-75,Arikaree River at Haigler, Nebr. 06818000: Flow=43400cfs,Stage=8.52ft,Floodstage=17ft,2017-09-21 00:30,25-75,Missouri River at St. Joseph, MO 06815000: Flow=77.4cfs,Stage=3.75ft,Floodstage=27ft,2017-09-21 00:45,25-75,Big Nemaha River at Falls City, Nebr. 06813500: Flow=42800cfs,Stage=9.77ft,Floodstage=17ft,2017-09-21 00:30,25-75,Missouri River at Rulo, NE 385520094420000: Flow=15.4cfs,2013-07-17 23:45,Not ranked,INDIAN C AT COLLEGE BLVD, JOHNSON CO, KS 375350097262800: Stage=4.44ft,2017-09-21 00:00,Not ranked,L ARKANSAS R UPSTREAM OF ASR FAC NR SEDGWICK, KS 07187600: Flow=782cfs,Stage=3.43ft,Floodstage=14ft,2017-09-21 00:30,Not ranked,SPRING R NR BAXTER SPRINGS, KS 07186055: Flow=44.6cfs,Stage=5.73ft,2017-09-21 00:45,Not ranked,COW C NR SCAMMON, KS 07185090: Flow=5.01cfs,Stage=8.47ft,2017-09-21 00:15,Not ranked,Tar Creek near Commerce, OK 07184500: Flow=15.0cfs,Stage=5.97ft,2017-09-21 00:00,Not ranked,LABETTE C NR OSWEGO, KS 07183300: Stage=11.83ft,Floodstage=29ft,2017-09-21 00:15,Not ranked,NEOSHO R NR ERIE, KS 07182395: Stage=-3.51ft,2017-09-21 01:00,Not ranked,NEOSHO R AT HARTFORD, KS 07182390: Flow=93.5cfs,Stage=0.70ft,Floodstage=22ft,2017-09-21 00:30,Not ranked,NEOSHO R AT NEOSHO RAPIDS, KS 07182260: Flow=72.3cfs,Stage=1.53ft,Floodstage=20ft,2017-09-21 00:30,Not ranked,COTTONWOOD R AT EMPORIA, KS 07182200: Flow=2.95cfs,Stage=6.50ft,2017-09-21 00:30,Not ranked,SF COTTONWOOD R NR BAZAAR, KS 07180200: Stage=4.99ft,2017-09-21 00:30,Not ranked,COTTONWOOD R AT MARION, KS 07179785: Flow=0.55cfs,Stage=9.37ft,2017-09-21 00:30,Not ranked,NF COTTONWOOD R NR DURHAM, KS 07179750: Flow=22.4cfs,Stage=3.51ft,2017-09-21 00:30,Not ranked,NEOSHO R AT BURLINGAME RD NR EMPORIA, KS 07179710: Stage=10.91ft,2017-09-21 00:00,Not ranked,NEOSHO R NR DUNLAP, KS 07179700: Flow=2.01cfs,Stage=9.17ft,2017-09-21 00:15,Not ranked,ROCK C NR DUNLAP, KS 07179300: Flow=1.07cfs,Stage=7.70ft,2017-09-21 00:45,Not ranked,NEOSHO R NR PARKERVILLE, KS 07170990: Flow=135cfs,Stage=3.01ft,2017-09-21 00:45,Not ranked,VERDIGRIS R AT COFFEYVILLE, KS 07170700: Stage=2.56ft,2017-09-21 00:00,Not ranked,BIG HILL C NR CHERRYVALE, KS 07165750: Flow=4.06cfs,Stage=6.79ft,2017-09-21 01:00,Not ranked,VERDIGRIS R NR VIRGIL, KS 07157940: Flow=0.69cfs,Stage=5.07ft,2017-09-21 01:00,Not ranked,BLUFF C NR BUTTERMILK, KS 07157740: Flow=1.37cfs,Stage=6.99ft,2017-09-21 00:15,Not ranked,CIMARRON R NR BUTTERMILK, KS 07148111: Flow=16.4cfs,Stage=4.24ft,2017-09-21 00:30,Not ranked,GROUSE C NR SILVERDALE, KS 07147900: Stage=2.47ft,Floodstage=18ft,2017-09-21 00:15,Not ranked,WALNUT R AT ARKANSAS CITY, KS 07147190: Stage=3.92ft,Floodstage=21ft,2017-09-21 00:15,Not ranked,WHITEWATER R AT AUGUSTA, KS 07146800: Flow=5.28cfs,Stage=5.63ft,Floodstage=21ft,2017-09-21 00:00,Not ranked,WB WALNUT R NR EL DORADO, KS 07145600: Flow=355cfs,Stage=7.63ft,Floodstage=17ft,2017-09-21 00:45,Not ranked,ARKANSAS R ON HWY 160 AT OXFORD, KS 07144795: Flow=0.43cfs,Stage=1.23ft,2015-11-12 10:00,Not ranked,NF NINNESCAH R AT CHENEY DAM, KS 07144790: Stage=1420.57ft,2017-09-21 00:00,Not ranked,CHENEY RE NR CHENEY, KS 07144570: Flow=223cfs,Stage=6.30ft,Floodstage=16.5ft,2017-09-21 00:15,Not ranked,ARKANSAS R AT MULVANE, KS 07144490: Flow=4.87cfs,Stage=7.32ft,2017-09-21 00:15,Not ranked,COWSKIN C AT KELLOGG ST, WICHITA, KS 07144486: Flow=0.00cfs,Stage=4.51ft,2017-09-21 01:00,Not ranked,CALFSKIN C AT 119TH ST, WICHITA, KS 07144480: Flow=6.68cfs,Stage=7.42ft,Floodstage=18ft,2017-09-21 00:30,Not ranked,COWSKIN C AT 119TH ST AT WICHITA, KS 07144470: Stage=11.25ft,2017-09-21 00:15,Not ranked,COWSKIN C AT 29TH ST NORTH OF WICHITA, KS 07144301: Flow=0.00cfs,Stage=6.48ft,2017-09-21 00:45,Not ranked,FLOODWAY AT ARKANSAS R AT WICHITA, KS 07144201: Flow=0.00cfs,Stage=2.58ft,2017-09-21 00:00,Not ranked,FLOODWAY AT L ARKANSAS R AT VALLEY CENTER, KS 07144100: Flow=16.1cfs,Stage=2.52ft,Floodstage=22ft,2017-09-21 00:15,Not ranked,L ARKANSAS R NR SEDGWICK, KS 07144050: Flow=0.33cfs,Stage=-1.26ft,Floodstage=19ft,2017-09-21 00:15,Not ranked,EMMA C AT SEDGWICK, KS 07143672: Flow=4.52cfs,Stage=5.70ft,Floodstage=25ft,2017-09-21 00:30,Not ranked,L ARKANSAS R AT HWY 50 NR HALSTEAD, KS 07143375: Flow=90.5cfs,Stage=5.16ft,2017-09-21 00:15,Not ranked,ARKANSAS R NR MAIZE, KS 07143310: Stage=1.48ft,Floodstage=9.5ft,2017-09-21 00:15,Not ranked,COW C NR HUTCHINSON, KS 07142680: Flow=74.1cfs,Stage=8.67ft,2017-09-21 00:00,Not ranked,ARKANSAS R NR NICKERSON, KS 07142019: Flow=0.00cfs,Stage=1.49ft,2017-09-21 01:00,Not ranked,CHEYENNE BOTTOMS DV NR GREAT BEND, KS 07141900: Flow=0.00cfs,Stage=2.18ft,Floodstage=24ft,2017-09-21 00:45,Not ranked,WALNUT C AT ALBERT, KS 07141780: Flow=0.00cfs,Stage=5.68ft,Floodstage=29ft,2017-09-21 00:15,Not ranked,WALNUT C AT NEKOMA, KS 07141220: Flow=0.00cfs,Stage=3.58ft,2017-09-21 01:00,Not ranked,ARKANSAS R NR LARNED, KS 07141200: Flow=0.00cfs,Stage=5.90ft,Floodstage=31ft,2017-09-21 00:30,Not ranked,PAWNEE R AT ROZEL, KS 07141000: Flow=0.00cfs,Stage=3.59ft,2017-09-21 00:45,Not ranked,BUCKNER C AT HANSTON, KS 07140900: Flow=0.38cfs,Stage=2.45ft,2017-09-21 00:15,Not ranked,BUCKNER C NR JETMORE, KS 07140890: Flow=1.70cfs,Stage=3.04ft,2017-09-21 00:45,Not ranked,BUCKNER C BL HORSETHIEF RE NR JETMORE, KS 07140880: Flow=0.78cfs,Stage=3.74ft,2017-09-21 00:15,Not ranked,BUCKNER C AB HORSETHIEF RE NR JETMORE, KS 07140850: Flow=0.00cfs,Stage=2.20ft,Floodstage=30ft,2017-09-21 00:00,Not ranked,PAWNEE R NR BURDETT, KS 07139500: Stage=6.00ft,Floodstage=11ft,2017-09-21 00:00,Not ranked,ARKANSAS R AT DODGE CITY, KS 07139000: Flow=0.00cfs,Stage=5.10ft,Floodstage=10ft,2017-09-21 00:30,Not ranked,ARKANSAS R AT GARDEN CITY, KS 07138075: Flow=5.00cfs,2017-09-16 20:00,Stage=1.58ft,2017-09-21 00:00:00,Not ranked,FARMERS DITCH NR DEERFIELD, KS 07138070: Flow=47.1cfs,Stage=6.94ft,Floodstage=14ft,2017-09-21 00:45,Not ranked,ARKANSAS R AT DEERFIELD, KS 07138064: Flow=15.8cfs,Stage=5.92ft,2017-09-21 00:15,Not ranked,SOUTHSIDE DITCH RETURN NR DEERFIELD, KS 07138063: Flow=27.6cfs,Stage=2.92ft,2017-09-21 00:00,Not ranked,SOUTHSIDE DITCH NR LAKIN, KS 07138050: Stage=2.76ft,2017-09-21 00:00:00,Not ranked,Equipment malfunction,AMAZON GREAT EASTERN DITCH NR LAKIN, KS 07138020: Flow=117cfs,Stage=6.28ft,2017-09-21 00:45,Not ranked,ARKANSAS R AT KENDALL, KS 07137010: Flow=1.83cfs,Stage=2.20ft,2017-09-21 00:45,Not ranked,FRONTIER DITCH RETURN NR COOLIDGE, KS 07134990: Flow=6.87cfs,Stage=2.85ft,2017-09-20 23:15,Not ranked,WILD HORSE CREEK ABOVE HOLLY, CO 06917630: Flow=2.24cfs,Stage=1.67ft,2017-09-21 00:15,Not ranked,East Drywood Creek at Prairie State Park 06917560: Flow=286cfs,Stage=4.58ft,Floodstage=25ft,2017-09-21 00:15,Not ranked,Marmaton River near Richards, MO 06917380: Flow=194cfs,2008-11-12 23:45,Not ranked,MARMATON R NR MARMATON, KS 06917240: Flow=39.4cfs,Stage=0.28ft,2017-09-21 01:00,Not ranked,MARMATON R NR UNIONTOWN, KS 06914995: Stage=918.59ft,2017-09-21 00:30,Not ranked,HILLSDALE LK NR HILLSDALE, KS 06914990: Flow=5.76cfs,Stage=3.25ft,2017-09-21 00:30,Not ranked,L BULL C NR SPRING HILL, KS 06914950: Flow=10.9cfs,Stage=2.31ft,2017-09-21 01:00,Not ranked,BIG BULL C NR EDGERTON, KS 06914500: Flow=307cfs,Stage=6.41ft,Floodstage=23ft,2017-09-21 00:30,Not ranked,POTTAWATOMIE C AT LANE, KS 06914100: Flow=187cfs,Stage=4.67ft,Floodstage=23ft,2017-09-21 00:45,Not ranked,POTTAWATOMIE C NR SCIPIO, KS 06912490: Stage=976.41ft,2017-09-21 00:45,Not ranked,POMONA LK NR QUENEMO, KS 06911490: Flow=1.99cfs,Stage=0.60ft,Floodstage=10ft,2017-09-21 00:30,Not ranked,SALT C AT LYNDON, KS 06910997: Stage=1036.08ft,2017-09-21 00:30,Not ranked,MELVERN LK NR MELVERN, KS 06893578: Flow=127cfs,Stage=5.85ft,Floodstage=33ft,2017-09-21 00:30,Not ranked,Blue River at Stadium Drive in Kansas City, MO 06893562: Stage=4.49ft,2017-09-21 00:45,Not ranked,Brush Creek at Rockhill Road in Kansas City, MO 06893557: Flow=0.00cfs,Stage=35.02ft,Floodstage=47ft,2017-09-21 00:15,Not ranked,Brush Creek at Ward Parkway in Kansas City, MO 06893400: Stage=83.22ft,2017-09-21 00:30,Not ranked,Indian Creek at 103rd St in Kansas City, MO 06893390: Flow=46.3cfs,Stage=10.34ft,Floodstage=20ft,2017-09-21 00:30,Not ranked,INDIAN C AT STATE LINE RD, LEAWOOD, KS 06893350: Flow=7.70cfs,Stage=2.15ft,2017-09-21 00:15,Not ranked,TOMAHAWK C NR OVERLAND PARK, KS 06893150: Flow=102cfs,Stage=25.30ft,Floodstage=35ft,2017-09-21 01:00,Not ranked,Blue River at Blue Ridge Blvd Ext in KC, MO 06893100: Flow=19.3cfs,Stage=5.31ft,2017-09-21 00:30,Not ranked,BLUE R AT KENNETH RD, OVERLAND PARK, KS 06892950: Stage=11.14ft,Floodstage=33ft,2017-09-21 00:45,Not ranked,KANSAS R AT KANSAS CITY, KS 06892518: Flow=1830cfs,Stage=10.01ft,2017-09-21 00:30,Not ranked,KANSAS R NR LAKE QUIVIRA, KS 06892513: Flow=30.3cfs,Stage=48.94ft,2017-09-21 00:30,Not ranked,MILL C AT JOHNSON DRIVE, SHAWNEE, KS 06892495: Flow=55.3cfs,Stage=57.64ft,2017-09-21 00:45,Not ranked,CEDAR C NR DESOTO, KS 06892494: Stage=3.22ft,2017-09-21 01:00,Not ranked,CAMP C AT 95TH ST NR DESOTO, KS 06892493: Stage=77.63ft,2017-09-21 01:00,Not ranked,CEDAR C AT 95TH ST NR DESOTO, KS 06892360: Flow=16.8cfs,Stage=5.15ft,2017-09-21 00:30,Not ranked,KILL C AT 95TH ST NR DESOTO, KS 06891850: Flow=11.9cfs,Stage=2.26ft,Floodstage=17ft,2017-09-21 00:30,Not ranked,STRANGER C AT EASTON, KS 06891810: Flow=199cfs,2015-06-09 23:45,Not ranked,STRANGER C NR POTTER, KS 06891478: Stage=877.57ft,2017-09-21 00:00,Not ranked,CLINTON LK NR LAWRENCE, KS 06891260: Flow=6.03cfs,Stage=3.64ft,2017-09-21 00:30,Not ranked,WAKARUSA R NR RICHLAND, KS 06891200: Stage=3.16ft,Floodstage=15ft,2017-09-21 00:15,Not ranked,WAKARUSA R AT WAKARUSA, KS 06891080: Flow=1060cfs,Stage=-12.62ft,Floodstage=18ft,2017-09-21 00:45,Not ranked,KANSAS R AT LAWRENCE, KS 06890898: Stage=893.87ft,2017-09-21 00:30,Not ranked,PERRY LK NR PERRY, KS 06889630: Flow=2.55cfs,Stage=4.18ft,Floodstage=24ft,2017-09-21 00:15,Not ranked,SHUNGANUNGA C AT TOPEKA, KS 06889585: Stage=4.78ft,Floodstage=15ft,2017-09-21 00:15,Not ranked,SHUNGANUNGA C AT GAGE BLVD, TOPEKA, KS 06889200: Stage=6.75ft,2017-09-21 00:30:00,Floodstage=26ft,Not ranked,Back Water,SOLDIER C NR DELIA, KS 06888990: Flow=1140cfs,Stage=5.01ft,2017-09-21 00:30,Not ranked,KANSAS R AT TOPEKA WATER PLANT, KS 06888700: Stage=7.10ft,Floodstage=25ft,2017-09-21 00:30,Not ranked,CROSS C AT ROSSVILLE, KS 06888300: Flow=12.6cfs,Stage=8.51ft,Floodstage=27ft,2017-09-21 00:00,Not ranked,ROCK C NR LOUISVILLE, KS 06886900: Stage=1078.33ft,2017-09-21 00:00,Not ranked,TUTTLE C LK NR MANHATTAN, KS 06886850: Flow=1.61cfs,Stage=4.69ft,2017-09-21 00:45,Not ranked,MILL C NR RILEY, KS 06886500: Flow=10.1cfs,Stage=0.82ft,Floodstage=16ft,2017-09-21 00:15,Not ranked,FANCY C AT WINKLER, KS 06884700: Stage=15.24ft,Floodstage=26ft,2017-09-21 00:15,Not ranked,BIG BLUE R AT BLUE RAPIDS, KS 06879820: Stage=5.35ft,Floodstage=18ft,2017-09-20 23:00,Not ranked,KANSAS R AT MANHATTAN, KS 06879815: Stage=2.39ft,2017-09-21 01:00,Not ranked,WILDCAT C AT SETH CHILDS RD, MANHATTAN, KS 06879810: Flow=5.34cfs,Stage=2.52ft,Floodstage=14ft,2017-09-21 00:15,Not ranked,WILDCAT C AT SCENIC DRIVE, MANHATTAN, KS 06879805: Stage=7.15ft,2017-09-21 00:00,Not ranked,WILDCAT C AT KEATS, KS 06879650: Flow=0.00cfs,Stage=2.06ft,2017-09-19 18:00,Not ranked,KINGS C NR MANHATTAN, KS 06878600: Flow=17.6cfs,Stage=5.47ft,Floodstage=21ft,2017-09-21 00:15,Not ranked,LYON C NR JUNCTION CITY, KS 06876440: Flow=44.9cfs,Stage=2.29ft,Floodstage=26ft,2017-09-21 00:15,Not ranked,SOLOMON R NR MINNEAPOLIS, KS 06876070: Stage=7.14ft,2017-09-21 00:15,Not ranked,SOLOMON R NR SIMPSON, KS 06870300: Flow=1.19cfs,Stage=19.57ft,2017-09-21 00:15,Not ranked,GYPSUM C NR GYPSUM, KS 06870200: Stage=5.34ft,Floodstage=27ft,2017-09-21 00:45,Not ranked,SMOKY HILL R AT NEW CAMBRIA, KS 06869950: Flow=0.05cfs,Stage=2.41ft,Floodstage=24ft,2017-09-21 00:00,Not ranked,MULBERRY C NR SALINA, KS 06868850: Flow=26.5cfs,Stage=10.79ft,Floodstage=30ft,2017-09-21 00:45,Not ranked,SALINE R AT LINCOLN, KS 06868100: Stage=1516.54ft,2017-09-21 00:30,Not ranked,WILSON LK NR WILSON, KS 06867500: Flow=0.37cfs,Stage=8.44ft,2017-09-21 00:30,Not ranked,PARADISE C NR PARADISE, KS 06865000: Stage=1464.49ft,2017-09-21 00:30,Not ranked,KANOPOLIS LK NR KANOPOLIS, KS 06864050: Flow=58.3cfs,2011-06-08 23:45,Not ranked,SMOKY HILL R NR BUNKER HILL, KS 06863420: Flow=0.28cfs,Stage=1.42ft,2017-09-21 00:15,Not ranked,BIG C NR ELLIS, KS 06863000: Flow=0.00cfs,Stage=0.81ft,2017-09-21 01:00,Not ranked,SMOKY HILL R AT PFEIFER, KS 06862850: Flow=0.00cfs,Stage=1.98ft,Floodstage=11ft,2017-09-21 00:00,Not ranked,SMOKY HILL R BL SCHOENCHEN, KS 06861500: Stage=2118.35ft,2017-09-21 00:15,Not ranked,CEDAR BLUFF RE NR ELLIS, KS 06860900: Flow=0.00cfs,Stage=7.00ft,2017-09-21 00:30,Not ranked,HACKBERRY C NR TREGO CENTER, KS 06860000: Flow=0.00cfs,Stage=3.70ft,Floodstage=9ft,2017-09-21 00:30,Not ranked,SMOKY HILL R AT ELKADER, KS 06857050: Stage=1145.06ft,2017-09-21 00:30,Not ranked,MILFORD LK NR JUNCTION CITY, KS 06855850: Flow=0.76cfs,Stage=3.84ft,2017-09-21 00:15,Not ranked,BUFFALO C 4 MI E OF JAMESTOWN, KS 06854000: Stage=-0.13ft,2017-09-21 00:45,Not ranked,WHITE ROCK C AT LOVEWELL, KS 06853020: Flow=9.57cfs,Stage=2.69ft,Floodstage=11ft,2017-09-21 00:30,Not ranked,Republican River at Guide Rock, Nebr. 06848500: Flow=0.00cfs,Stage=1.04ft,Floodstage=21ft,2017-09-21 00:30,Not ranked,PRAIRIE DOG C NR WOODRUFF, KS 06848000: Flow=0.08cfs,2002-09-30 23:00,Not ranked,PRAIRIE DOG C AT NORTON, KS 06846500: Flow=0.00cfs,Stage=2.76ft,Floodstage=16ft,2017-09-21 00:00,Not ranked,BEAVER C AT CEDAR BLUFFS, KS 06845110: Flow=0.28cfs,Stage=4.61ft,Floodstage=17ft,2017-09-21 00:30,Not ranked,SAPPA C NR LYLE, KS 06827500: Flow=0.00cfs,Stage=-0.91ft,Floodstage=9ft,2017-09-20 23:30,Not ranked,South Fork Republican River near Benkelman, Nebr. 06827000: Flow=1.24cfs,Stage=2.87ft,2017-09-21 00:45,Not ranked,SF REPUBLICAN R NR CO-KS ST LINE, KS 06820475: Stage=5.66ft,Floodstage=20ft,2017-09-21 00:00,Not ranked,MISSOURI R AT LEAVENWORTH, KS 06818300: Stage=10.59ft,Floodstage=22ft,2017-09-21 01:00,Not ranked,MISSOURI R AT ATCHISON, KS Go to WaterWatch (offsite) for a larger map with additional options
USGS Home Water Resources Biology Geography Geology Geospatial

Accessibility FOIA Privacy Policies and Notices

Take Pride in America logo USA.gov logo U.S. Department of the Interior | U.S. Geological Survey
Page Contact Information: GS-W-KS_info@usgs.gov
Page Last Modified: 2017-08-25 15:58:12 CDT